Cloud_Cover
100 100 89 100 100 14 100 93 100 9 18 22 2 0 1 0 0 21 0 0 0 0 0 0 8 10 0 0 0 0 0 0 0 0 0 0 56 0 0 0 34 71 19 0 0 0 0 0 0
100 100 100 100 100 100 96 90 100 100 100 96 4 0 0 0 0 0 1 0 0 0 0 0 0 0 0 0 0 0 4 2 0 0 0 2 10 78 2 40 8 96 0 0 2 1 1 1 2
100 100 100 100 100 100 100 100 100 100 100 100 5 0 0 1 0 0 0 0 0 0 53 0 0 0 0 0 0 10 10 0 0 0 0 1 1 19 21 18 0 0 0 0 0 0 0 3 0
100 100 100 100 100 100 100 100 100 100 100 100 40 4 0 0 0 0 0 1 6 80 90 34 0 0 2 0 0 5 0 0 0 0 0 0 2 0 0 0 0 0 0 0 0 0 1 10 2
100 100 100 100 100 100 100 100 100 100 100 98 13 5 7 5 5 0 0 1 13 94 69 18 5 1 0 0 10 6 5 0 0 0 0 0 0 0 0 0 0 0 2 0 8 1 0 5 0
100 100 100 100 100 100 100 100 100 100 100 100 5 5 7 14 9 4 0 5 4 83 80 34 32 0 0 0 0 0 3 11 2 0 0 0 0 2 0 6 11 7 2 2 5 5 5 5 4
100 100 100 100 100 100 100 100 100 100 72 99 48 22 49 40 82 5 5 5 5 83 100 73 28 34 7 0 0 0 6 12 5 2 2 0 4 1 5 2 0 5 5 5 5 5 5 40 66
100 100 100 100 100 100 100 100 100 100 78 70 77 29 5 13 64 5 32 39 5 76 100 100 31 5 9 80 8 5 5 5 4 5 2 5 5 5 5 5 43 24 5 31 80 5 5 5 5
100 100 96 100 100 100 100 100 100 100 100 100 100 77 5 24 79 98 14 48 9 25 20 5 10 4 98 98 37 53 12 5 9 100 48 39 32 16 10 14 5 5 9 4 0 5 8 5 63
100 100 100 100 100 100 100 100 100 100 100 100 100 100 48 97 100 99 100 98 41 83 33 20 6 9 59 98 13 6 28 34 100 100 100 89 20 6 5 7 7 5 5 5 24 64 45 14 28
99 100 100 100 100 100 100 100 100 100 100 100 100 99 81 100 100 100 99 93 98 99 86 57 84 58 43 46 60 73 100 100 100 100 100 84 27 46 44 36 88 20 18 78 68 85 98 63 47
100 100 100 100 100 100 100 100 100 100 100 100 100 100 90 100 100 100 29 5 6 96 100 100 95 92 70 100 89 56 49 42 100 100 62 32 10 20 87 22 23 38 88 38 87 97 99 58 100
100 100 100 100 100 100 100 100 100 100 100 100 100 99 100 100 100 72 66 29 68 43 50 54 97 100 71 60 16 20 13 10 99 9 11 13 37 27 33 41 99 73 75 42 18 14 77 37 100
100 100 100 100 100 100 100 100 100 100 100 100 100 100 100 100 100 95 58 56 22 54 63 25 20 5 11 38 20 65 99 100 99 99 26 14 40 65 99 93 91 11 53 9 11 29 29 50 86
100 100 100 100 100 100 100 100 100 100 100 100 100 100 100 99 100 78 98 59 91 71 37 38 19 5 7 96 89 8 7 45 90 100 83 34 38 100 94 34 5 5 5 5 5 95 88 97 100
100 100 100 100 100 100 91 100 100 100 100 100 100 100 100 100 100 98 78 100 95 70 29 37 25 5 29 99 86 84 55 76 99 100 100 84 23 30 23 24 6 5 5 5 18 83 100 100 99
100 100 68 96 100 99 7 100 63 100 57 97 87 94 87 99 100 96 94 100 22 15 49 42 71 9 94 100 19 26 60 78 77 69 45 99 23 5 5 5 5 5 5 5 29 99 100 100 82
100 100 100 100 88 99 19 97 36 99 100 100 100 99 61 100 100 79 52 40 50 24 48 88 58 10 97 23 17 87 65 38 12 27 20 12 21 6 9 5 5 21 62 98 82 66 100 88 24
100 100 100 100 95 96 32 86 41 10 100 100 100 100 36 100 100 93 20 9 82 41 99 93 61 42 5 10 41 41 63 54 67 46 67 5 8 17 79 73 92 96 82 84 19 47 25 25 7
100 100 100 100 100 89 59 65 5 9 22 65 97 57 45 20 100 79 89 25 24 100 100 100 100 45 13 20 39 56 50 52 30 48 17 11 78 100 100 81 88 87 100 35 8 61 36 6 6
100 100 100 100 100 99 54 44 5 70 93 62 23 65 55 37 78 58 48 5 18 86 90 100 95 69 29 11 53 33 60 76 20 56 9 89 87 100 98 92 100 100 100 90 35 33 10 5 86
100 100 100 100 100 96 63 12 5 35 94 28 7 40 31 98 76 78 52 48 96 99 100 72 28 33 61 58 80 51 98 85 16 98 100 100 100 100 100 100 100 100 38 57 8 5 17 100 70
100 100 100 100 100 100 100 53 88 24 27 58 9 97 65 38 5 22 64 88 100 100 80 51 86 77 80 78 32 63 67 30 28 100 100 100 100 100 100 100 83 68 5 5 31 100 100 98 73
100 100 100 100 100 100 100 97 100 5 89 100 100 94 69 56 61 96 100 100 99 53 78 100 100 100 100 99 88 98 100 89 91 100 100 100 100 100 100 66 40 34 4 33 18 29 5 5 5
100 100 100 100 100 100 100 100 98 6 37 44 37 89 90 100 79 100 100 100 64 70 82 100 100 100 97 100 100 100 100 100 98 98 100 100 100 50 44 23 96 100 5 8 84 9 5 17 5
100 100 100 100 57 92 98 98 23 92 100 100 94 94 94 38 98 100 100 100 99 89 100 100 100 98 83 100 100 100 100 97 100 100 100 100 94 83 80 6 22 71 5 2 4 5 5 17 52
100 100 100 100 75 100 7 100 100 100 98 100 100 100 98 97 100 98 12 36 99 5 23 100 87 95 100 100 100 100 98 100 100 100 100 100 100 72 8 24 8 87 8 6 9 5 6 35 50
100 100 100 100 100 18 13 100 99 100 100 100 100 100 100 100 42 49 100 93 51 6 100 79 94 94 100 100 100 99 100 100 100 94 70 94 52 67 100 99 100 91 71 22 39 65 100 100 96
100 100 100 100 100 61 61 100 100 100 100 100 100 100 77 50 89 62 69 32 14 37 96 73 96 100 100 100 100 100 100 100 72 66 38 66 18 100 100 75 98 84 49 86 87 69 80 95 59
100 100 100 100 100 90 81 100 100 100 100 100 100 100 82 98 100 100 36 34 9 46 16 96 100 100 100 100 100 100 83 22 76 7 99 99 100 100 73 95 86 17 63 5 13 5 100 57 92